Waarnemingen

Advertentie
Mijn weer
Katterjakk A, Zweden (2019): temperatuur & dauwpunt: 19.05.2019 21:00:00 - 25.05.2019 21:00:00 (CEST)Katterjakk A, Zweden (2019): windsnelheid & windstoten: 19.05.2019 21:00:00 - 25.05.2019 21:00:00 (CEST)Katterjakk A, Zweden (2019): windrichting: 19.05.2019 21:00:00 - 25.05.2019 21:00:00 (CEST)Katterjakk A, Zweden (2019): luchtdruk: 19.05.2019 21:00:00 - 25.05.2019 21:00:00 (CEST)Katterjakk A, Zweden (2019): zicht: 19.05.2019 21:00:00 - 25.05.2019 21:00:00 (CEST)Katterjakk A, Zweden (2019): neerslag: 19.05.2019 21:00:00 - 25.05.2019 21:00:00 (CEST)
Datum & Tijd tt [°C] td [°C] ff [km/u] ff [kn] fx [km/u] fx [kn] dd ppp [hPa] vv [km] rr [mm]
25.05.2019 21:00:00 2,7 -0,8 8 5 17 9 NW 1004,7 50 0,0
25.05.2019 20:00:00 4,1 -0,9 13 7 20 11 NW 1004,8 50 0,0
25.05.2019 19:00:00 4,6 -1,8 4 2 11 6 NW 1005,0 50 0,0
25.05.2019 18:00:00 4,7 -1,7 3 2 13 7 NW 1005,5 43 0,0
25.05.2019 17:00:00 4,6 -1,6 7 4 14 8 NNW 1006,0 42 0,0
25.05.2019 16:00:00 4,6 -1,8 7 4 15 8 NW 1006,3 50 0,0
25.05.2019 15:00:00 4,4 -1,4 9 5 14 8 N 1006,7 47 0,0
25.05.2019 14:00:00 4,2 -1,4 8 5 14 8 N 1007,2 37 0,0
25.05.2019 13:00:00 4,1 -1,5 5 3 16 8 W 1007,2 44 0,0
25.05.2019 12:00:00 4,0 -1,2 8 4 22 12 WNW 1007,6 40 0,0
25.05.2019 11:00:00 3,4 -1,2 10 5 18 10 WNW 1007,9 39 0,0
25.05.2019 10:00:00 3,1 -0,7 7 4 17 9 NW 1008,1 34 0,0
25.05.2019 09:00:00 2,4 -0,5 8 5 15 8 WNW 1008,4 46 0,0
25.05.2019 08:00:00 2,3 -0,3 12 6 17 9 NW 1008,4 34 0,0
25.05.2019 07:00:00 2,1 0,0 11 6 18 10 WZW 1008,5 36 0,0
25.05.2019 06:00:00 2,0 -0,3 3 2 8 4 ZW 1008,6 38 0,0
25.05.2019 05:00:00 1,7 -0,1 3 2 6 3 WZW 1008,7 36 0,0
25.05.2019 04:00:00 1,3 -0,3 4 2 8 4 Z 1008,8 39 0,0
25.05.2019 03:00:00 1,5 -0,6 3 2 7 4 ZZW 1008,9 49 0,0
25.05.2019 02:00:00 2,1 -1,0 3 1 10 6 OZO 1008,8 50 0,0
25.05.2019 01:00:00 3,0 -1,0 6 3 11 6 ZZW 1008,8 50 0,0
25.05.2019 00:00:00 2,8 -1,0 2 1 7 4 ZZW 1009,0 50 0,0
24.05.2019 23:00:00 3,1 -1,3 4 2 8 5 ZW 1009,1 50 0,0
24.05.2019 22:00:00 3,3 -1,1 4 2 7 4 WZW 1009,2 50 0,0
24.05.2019 21:00:00 3,8 -1,2 3 2 9 5 ZW 1009,0 50 0,0
24.05.2019 20:00:00 4,3 -1,5 5 3 16 8 ZZW 1009,1 50 0,0
24.05.2019 19:00:00 3,9 -1,5 11 6 14 7 Z 1009,4 50 0,0
24.05.2019 18:00:00 4,2 -1,4 11 6 13 7 Z 1009,6 50 0,0
24.05.2019 17:00:00 4,2 -1,2 10 5 15 8 Z 1009,9 50 0,0
24.05.2019 16:00:00 4,6 -1,4 10 5 11 6 Z 1010,0 50 0,0
24.05.2019 15:00:00 6,2 -3,5 3 2 8 4 NNO 1009,7 50 0,0
24.05.2019 14:00:00 6,1 -3,3 4 2 7 4 NNO 1010,0 50 0,0
24.05.2019 13:00:00 5,8 -3,0 4 2 10 6 ZZO 1010,3 46 0,0
24.05.2019 12:00:00 5,9 -3,0 3 2 10 6 N 1010,6 47 0,0
24.05.2019 11:00:00 5,2 -2,9 5 3 17 9 N 1011,0 43 0,0
24.05.2019 10:00:00 4,0 -2,2 7 4 11 6 Z 1011,6 44 0,0
24.05.2019 09:00:00 3,7 -3,1 3 1 7 4 W 1012,1 34 0,0
24.05.2019 08:00:00 2,7 -3,4 3 1 6 4 W 1012,5 47 0,0
24.05.2019 07:00:00 2,3 -4,0 3 1 5 3 N 1012,9 39 0,0
24.05.2019 06:00:00 0,9 -4,0 2 1 10 5 WZW 1013,5 47 0,0
24.05.2019 05:00:00 1,2 -3,9 4 2 10 6 NNW 1013,9 50 0,0
24.05.2019 04:00:00 -0,7 -4,6 5 3 9 5 N 1014,4 50 0,0
24.05.2019 03:00:00 -0,8 -4,2 4 2 11 6 NNW 1014,7 50 0,0
24.05.2019 02:00:00 -1,2 -4,5 4 2 9 5 W 1015,0 50 0,0
24.05.2019 01:00:00 -0,7 -4,6 5 3 10 5 ZW 1015,2 50 0,0
24.05.2019 00:00:00 0,2 -4,3 2 1 10 5 WZW 1015,2 50 0,0
23.05.2019 23:00:00 0,4 -4,1 3 1 14 8 WNW 1015,4 50 0,0
23.05.2019 22:00:00 2,6 -3,5 18 10 36 20 O 1015,0 50 0,0
23.05.2019 21:00:00 3,0 -3,6 28 15 40 22 O 1014,9 50 0,0
23.05.2019 20:00:00 3,3 -3,5 27 15 38 21 O 1015,0 50 0,0
23.05.2019 19:00:00 3,5 -3,8 26 14 42 23 O 1015,1 45 0,0
23.05.2019 18:00:00 3,6 -3,4 29 16 42 23 O 1015,3 41 0,0
23.05.2019 17:00:00 3,5 -3,5 34 18 45 24 O 1015,7 48 0,0
23.05.2019 16:00:00 3,3 -3,5 33 18 46 25 O 1016,1 50 0,0
23.05.2019 15:00:00 3,1 -3,9 32 18 48 26 O 1016,4 43 0,0
23.05.2019 14:00:00 3,0 -3,8 34 18 47 26 O 1016,7 50 0,0
23.05.2019 13:00:00 2,8 -4,0 33 18 50 27 O 1016,9 37 0,0
23.05.2019 12:00:00 2,3 -4,4 37 20 47 25 O 1017,2 49 0,0
23.05.2019 11:00:00 2,1 -4,6 32 17 44 24 O 1017,4 43 0,0
23.05.2019 10:00:00 1,8 -4,5 32 17 40 22 O 1017,8 50 0,0
23.05.2019 09:00:00 1,9 -4,0 23 13 40 22 O 1018,0 43 0,0
23.05.2019 08:00:00 1,6 -4,3 22 12 36 19 O 1018,3 42 0,0
23.05.2019 07:00:00 1,7 -4,6 16 9 26 14 O 1018,6 50 0,0
23.05.2019 06:00:00 1,8 -4,9 4 2 9 5 O 1018,9 46 0,0
23.05.2019 05:00:00 0,9 -4,9 4 2 12 7 NW 1019,3 50 0,0
23.05.2019 04:00:00 0,1 -4,9 5 3 11 6 NNW 1019,8 50 0,0
23.05.2019 03:00:00 -0,3 -5,1 5 3 18 10 W 1020,1 50 0,0
23.05.2019 02:00:00 0,5 -4,9 14 8 33 18 O 1020,3 50 0,0
23.05.2019 01:00:00 0,8 -4,6 24 13 39 21 O 1020,3 50 0,0
23.05.2019 00:00:00 1,4 -4,5 21 12 41 22 O 1020,2 50 0,0
22.05.2019 23:00:00 1,7 -4,2 28 15 50 27 ONO 1020,2 50 0,0
22.05.2019 22:00:00 2,2 -3,9 32 17 50 27 O 1019,9 50 0,0
22.05.2019 21:00:00 2,8 -3,5 34 18 53 29 ONO 1019,6 50 0,0
22.05.2019 20:00:00 3,9 -3,2 32 18 47 25 ONO 1019,0 50 0,0
22.05.2019 19:00:00 4,9 -2,7 31 17 50 27 ONO 1018,8 50 0,0
22.05.2019 18:00:00 5,8 -2,5 28 15 43 23 O 1018,7 50 0,0
22.05.2019 17:00:00 6,1 -2,3 28 15 42 23 O 1018,8 47 0,0
22.05.2019 16:00:00 5,7 -1,9 27 15 40 22 ONO 1019,2 43 0,0
22.05.2019 15:00:00 5,5 -1,4 24 13 41 22 O 1019,3 46 0,0
22.05.2019 14:00:00 5,2 -0,8 25 13 39 21 O 1019,2 49 0,0
22.05.2019 13:00:00 4,9 -0,1 27 14 41 22 ONO 1019,1 49 0,0
22.05.2019 12:00:00 4,6 0,4 26 14 38 20 ONO 1019,4 45 0,0
22.05.2019 11:00:00 4,5 1,0 25 13 35 19 O 1019,2 47 0,0
22.05.2019 10:00:00 4,1 1,3 21 12 31 17 O 1019,2 50 0,0
22.05.2019 09:00:00 3,5 1,9 7 4 10 6 O 1019,2 41 0,0
22.05.2019 08:00:00 3,3 1,8 5 3 9 5 NW 1019,1 29 0,0
22.05.2019 07:00:00 2,5 1,9 0 0 5 3 N 1019,2 3,1 0,0
22.05.2019 06:00:00 2,5 1,9 2 1 6 4 W 1019,3 7 0,0
22.05.2019 05:00:00 2,4 1,7 5 3 7 4 NNW 1019,3 10 0,0
22.05.2019 04:00:00 2,8 2,1 5 3 8 5 NW 1019,5 12 0,0
22.05.2019 03:00:00 2,4 2,0 4 2 6 3 NNW 1019,8 12 0,0
22.05.2019 02:00:00 1,3 0,3 2 1 9 5 WZW 1020,0 11 0,0
22.05.2019 01:00:00 1,9 0,7 2 1 8 4 WZW 1020,1 13 0,0
22.05.2019 00:00:00 2,1 1,1 3 1 5 3 W 1020,0 21 0,0
21.05.2019 23:00:00 2,9 1,3 2 1 7 4 NW 1019,8 26 0,0
21.05.2019 22:00:00 5,3 2,5 4 2 6 4 NNW 1019,1 41 0,0
21.05.2019 21:00:00 4,9 2,1 2 1 10 5 W 1019,1 41 0,0
21.05.2019 20:00:00 5,3 2,3 8 4 13 7 Z 1019,0 50 0,0
21.05.2019 19:00:00 6,9 2,8 5 3 - - Z 1018,6 41 0,0
21.05.2019 18:00:00 7,0 2,9 8 4 10 6 Z 1018,7 44 0,0
21.05.2019 17:00:00 7,7 3,5 7 4 15 8 Z 1018,5 38 0,0
21.05.2019 16:00:00 7,6 3,1 10 5 15 8 Z 1018,8 40 0,0
21.05.2019 15:00:00 7,1 2,6 11 6 15 8 Z 1019,0 44 0,0
21.05.2019 14:00:00 6,9 2,6 12 6 16 9 Z 1019,1 50 0,0
21.05.2019 13:00:00 7,0 2,5 9 5 16 9 Z 1019,0 36 0,0
21.05.2019 12:00:00 6,9 2,0 9 5 14 8 Z 1018,9 41 0,0
21.05.2019 11:00:00 7,1 2,2 11 6 16 9 Z 1018,7 46 0,0
21.05.2019 10:00:00 6,2 1,5 7 4 10 5 Z 1018,7 47 0,0
21.05.2019 09:00:00 6,0 1,3 10 5 15 8 Z 1018,6 44 0,0
21.05.2019 08:00:00 6,8 1,5 3 1 8 4 NNO 1018,4 42 0,0
21.05.2019 07:00:00 5,8 1,3 4 2 6 4 NNW 1018,5 50 0,0
21.05.2019 06:00:00 6,2 1,5 2 1 10 5 ONO 1018,2 50 0,0
21.05.2019 05:00:00 5,6 1,3 6 3 10 5 ZW 1018,2 50 0,0
21.05.2019 04:00:00 5,2 1,1 6 4 16 8 Z 1018,1 50 0,0
21.05.2019 03:00:00 6,5 1,6 8 5 18 10 ZW 1017,8 50 0,0
21.05.2019 02:00:00 6,3 1,6 6 3 19 10 WZW 1017,8 50 0,0
21.05.2019 01:00:00 6,8 1,7 7 4 18 10 ZW 1017,6 50 0,0
21.05.2019 00:00:00 8,3 2,3 4 2 16 9 ZW 1017,0 50 0,0
20.05.2019 23:00:00 8,2 2,2 10 6 26 14 ZW 1017,0 50 0,0
20.05.2019 22:00:00 8,0 2,0 21 12 28 15 ZZW 1016,9 50 0,0
20.05.2019 21:00:00 8,2 2,2 14 8 26 14 ZZW 1016,7 50 0,0
20.05.2019 20:00:00 8,9 2,2 12 7 - - WZW 1016,4 50 0,0
20.05.2019 19:00:00 9,6 2,4 15 8 25 13 ZW 1016,0 50 0,0
20.05.2019 18:00:00 9,9 2,3 16 9 27 14 ZZW 1015,9 50 0,0
20.05.2019 17:00:00 9,8 2,4 21 11 28 15 ZZW 1016,1 46 0,0
20.05.2019 16:00:00 8,2 1,8 21 11 27 15 ZZW 1016,4 49 0,0
20.05.2019 15:00:00 10,1 2,2 6 3 26 14 ZW 1016,0 47 0,0
20.05.2019 14:00:00 8,6 2,0 9 5 16 9 ZZW 1016,3 42 0,0
20.05.2019 13:00:00 7,3 1,6 11 6 17 9 Z 1016,5 47 0,0
20.05.2019 12:00:00 7,3 1,8 9 5 13 7 Z 1016,6 39 0,0
20.05.2019 11:00:00 6,6 2,3 5 3 9 5 ZZW 1016,5 45 0,0
20.05.2019 10:00:00 6,3 1,4 6 4 12 6 Z 1016,4 43 0,0
20.05.2019 09:00:00 6,1 1,6 7 4 12 7 Z 1016,5 47 0,0
20.05.2019 08:00:00 6,2 1,9 4 2 - - Z 1016,5 47 0,0
20.05.2019 07:00:00 4,7 1,5 3 2 7 4 ZZW 1016,7 50 0,0
20.05.2019 06:00:00 5,5 2,0 3 1 7 4 WZW 1016,5 50 0,0
20.05.2019 05:00:00 4,9 1,4 0 0 10 5 N 1016,7 50 0,0
20.05.2019 04:00:00 5,0 1,5 3 1 9 5 NO 1016,6 50 0,0
20.05.2019 03:00:00 5,1 1,4 5 3 9 5 ZW 1016,8 50 0,0
20.05.2019 02:00:00 5,6 1,7 2 1 15 8 W 1016,8 50 0,0
20.05.2019 01:00:00 6,6 1,3 9 5 14 8 WZW 1016,7 50 0,0
20.05.2019 00:00:00 5,2 0,8 7 4 12 6 WZW 1017,4 50 0,0
19.05.2019 23:00:00 8,2 1,1 6 3 16 9 ZW 1016,7 50 0,0
19.05.2019 22:00:00 7,4 0,8 10 5 16 9 ZW 1016,9 50 0,0
19.05.2019 21:00:00 8,6 1,0 9 5 19 10 ZW 1016,7 50 0,0

tt = temperatuur
td = dauwpunt
ff = windsnelheid
fx = windstoten
dd = windrichting
ppp = luchtdruk
vv = zicht
rr = neerslag

Weerstations in de omgeving